This demonstration page uses our WeatherBlox Daily Observations layout. Learn more.

Left ArrowRight Arrow

Hourly Observations for December 31, 2019

Temp ( °F °C ) Dew Point ( °F °C ) Humidity (%) Winds ( mph kmh ) Pressure ( in mb ) Visibility ( mi km ) Precip ( " mm )
12:51 am 00:51 Clear 40 4.4 24 -4.4 53 53 ESE 13 20 30.05 1018 10 16 N/A
1:51 am 01:51 Clear 39 3.9 25 -3.9 57 57 ESE 8 13 30.06 1018 10 16 N/A
2:51 am 02:51 Clear 39 3.9 26 -3.3 60 60 ESE 10 17 30.06 1018 10 16 N/A
3:51 am 03:51 Clear 40 4.4 26 -3.3 58 58 SE 13 20 30.04 1017 10 16 N/A
4:51 am 04:51 Clear 41 5 25 -3.9 53 53 SE 13 20 30.04 1017 10 16 N/A
5:51 am 05:51 Clear 40 4.4 23 -5 51 51 SE 7 11 30.05 1018 10 16 N/A
6:51 am 06:51 Clear 40 4.4 22 -5.6 49 49 SE 9 15 30.05 1018 10 16 N/A
7:51 am 07:51 Sunny 39 3.9 24 -4.4 55 55 ESE 7 11 30.07 1018 10 16 N/A
8:51 am 08:51 Sunny 42 5.6 24 -4.4 49 49 SE 8 13 30.10 1019 10 16 N/A
9:51 am 09:51 Mostly Sunny 44 6.7 24 -4.4 45 45 ESE 8 13 30.12 1020 10 16 N/A
10:51 am 10:51 Sunny 46 7.8 22 -5.6 38 38 SE 10 17 30.11 1020 10 16 N/A
11:51 am 11:51 Cloudy 48 8.9 25 -3.9 41 41 ESE 6 9 30.07 1018 10 16 N/A
12:51 pm 12:51 Partly Cloudy 50 10 25 -3.9 38 38 SSE 6 9 30.03 1017 10 16 N/A
1:51 pm 13:51 Mostly Sunny 53 11.7 24 -4.4 32 32 VRB 5 7 29.99 1016 10 16 N/A
2:51 pm 14:51 Cloudy 54 12.2 23 -5 30 30 W 3 6 29.98 1015 10 16 N/A
3:51 pm 15:51 Mostly Cloudy 53 11.7 23 -5 31 31 VRB 3 6 29.98 1015 10 16 N/A
4:51 pm 16:51 Mostly Cloudy 51 10.6 26 -3.3 38 38 WNW 5 7 29.99 1016 10 16 N/A
5:51 pm 17:51 Mostly Clear 46 7.8 27 -2.8 47 47 NW 6 9 30.02 1017 10 16 N/A
6:51 pm 18:51 Clear 43 6.1 28 -2.2 56 56 N 5 7 30.03 1017 10 16 N/A
7:51 pm 19:51 Clear 40 4.4 29 -1.7 65 65 N N/A 30.04 1017 10 16 N/A
8:51 pm 20:51 Clear 37 2.8 28 -2.2 70 70 NW 3 6 30.05 1018 10 16 N/A
9:51 pm 21:51 Clear 36 2.2 29 -1.7 76 76 NE 6 9 30.06 1018 10 16 N/A
10:51 pm 22:51 Clear 33 0.6 28 -2.2 82 82 N N/A 30.07 1018 10 16 N/A
11:51 pm 23:51 Clear 31 -0.6 27 -2.8 85 85 N N/A 30.06 1018 10 16 N/A

Powered by AerisWeather